Temperature
22 19 19 19 20 21 21 21 21 22 22 21 20 19 19 18 17 16 16 15 15 15 15 15 15 15 15 15 15 15 15 15 15 15 15 15 15 14 14 14 14 14 14 14
19 19 20 21 22 22 22 21 21 22 23 21 19 19 18 18 17 17 16 15 15 15 14 14 14 15 15 15 14 14 14 14 14 15 15 14 14 14 14 14 14 14 14 14
19 20 22 22 22 22 22 21 22 22 22 21 20 18 18 17 17 17 16 16 15 15 14 14 14 14 14 14 14 14 14 14 14 14 14 14 13 13 13 13 13 13 13 13
20 21 23 23 23 23 21 23 23 22 20 19 19 17 17 17 16 16 16 15 15 14 14 14 14 13 13 13 13 13 13 13 13 13 13 13 13 13 13 13 12 12 13 13
21 23 23 23 24 23 22 23 23 22 20 18 18 17 17 16 16 16 15 15 15 14 14 14 13 13 13 13 13 13 13 13 13 13 13 12 12 12 12 12 12 12 12 12
22 23 23 23 24 24 23 22 20 18 17 17 18 17 17 15 16 16 15 14 14 14 14 13 13 12 12 12 12 12 12 12 12 12 12 12 12 11 11 11 11 12 11 11
21 22 23 24 23 23 22 19 17 18 16 17 17 17 16 16 17 16 15 14 14 14 13 13 12 12 12 12 11 11 11 11 11 11 11 11 11 11 11 11 11 11 11 11
20 20 22 23 23 22 21 19 17 18 17 16 17 16 16 16 16 16 15 14 14 13 13 13 12 12 12 11 11 11 11 10 10 10 10 10 10 10 10 10 10 10 10 10
19 20 22 23 23 22 21 19 18 16 17 16 16 16 16 16 15 15 14 13 13 13 13 12 12 12 11 11 11 10 10 10 10 9 9 9 9 9 9 9 9 9 9 9
20 20 21 23 23 22 21 19 16 16 16 16 16 16 16 15 15 14 14 13 12 12 12 12 11 11 11 10 10 10 9 9 9 9 9 9 9 9 9 9 9 9 9 9
19 19 20 21 21 20 20 20 17 15 16 16 16 16 17 16 15 14 13 13 12 12 12 11 11 11 10 10 10 9 9 9 9 9 8 8 8 8 8 8 8 8 8 8
19 17 18 19 20 21 20 19 17 16 16 15 15 15 17 15 15 14 13 12 12 12 12 11 11 10 10 10 9 9 9 8 8 8 8 8 8 8 8 8 8 8 8 8
19 17 17 18 18 19 19 19 18 16 15 15 15 16 15 15 14 14 13 12 12 11 11 11 10 10 9 9 9 9 8 8 8 8 8 8 8 8 8 7 8 7 7 7
19 16 16 17 17 18 19 19 18 16 15 15 16 16 15 14 13 13 12 12 11 11 11 10 10 10 9 9 8 8 8 8 8 7 7 7 7 7 7 7 7 7 7 7
17 17 18 18 19 19 19 19 19 18 17 16 16 16 15 14 13 13 12 11 11 10 10 10 10 9 9 8 8 8 8 7 7 7 7 7 7 7 7 7 7 7 7 7
15 16 17 17 19 19 19 18 19 18 18 17 16 15 14 14 13 12 12 11 10 10 10 10 9 9 9 8 8 8 7 7 7 7 7 7 7 7 7 7 7 7 7 7
15 15 15 16 17 18 17 17 17 17 17 16 15 14 13 12 12 12 11 11 10 10 10 10 9 9 8 8 8 8 7 7 7 7 7 7 7 7 7 7 7 7 7 6
15 14 13 14 16 16 16 17 17 17 16 16 15 14 13 12 12 12 12 11 10 10 10 9 9 9 8 8 8 7 7 7 7 7 7 7 7 6 6 6 6 6 6 6
14 14 14 14 15 16 16 17 16 16 15 15 14 13 12 12 12 11 11 11 11 10 10 10 9 8 8 8 7 7 7 7 7 7 6 6 6 6 6 6 6 6 6 6
14 14 14 14 15 15 15 17 17 16 14 14 14 13 12 12 11 10 11 11 10 10 10 9 8 8 8 7 7 7 7 7 7 6 6 6 6 6 6 6 6 6 6 6
15 14 14 14 14 15 15 16 17 15 14 14 14 13 13 12 12 11 11 10 10 10 9 9 8 8 7 7 7 7 7 6 6 6 6 6 6 6 6 6 6 6 6 6
14 14 14 13 14 14 15 15 15 14 14 14 14 14 13 12 12 11 10 10 10 9 9 8 8 7 7 7 7 7 7 6 6 6 6 6 6 6 6 6 6 6 6 6
14 13 12 13 13 14 15 15 15 15 15 14 14 14 13 12 11 10 10 10 9 9 9 8 8 7 7 7 7 7 7 6 6 6 6 6 6 6 6 6 6 6 6 6
14 14 13 13 14 14 15 15 15 15 15 15 14 13 13 12 11 10 10 9 9 9 8 8 8 7 7 7 7 7 7 7 6 6 6 6 6 6 6 6 6 6 6 6
14 14 13 13 13 14 15 15 15 15 14 14 13 13 12 12 11 10 10 9 9 9 8 8 8 8 7 7 7 7 7 7 7 6 7 7 7 7 7 7 7 7 6 6
14 13 13 13 14 14 14 15 15 14 14 13 13 12 12 12 11 11 10 9 9 9 8 8 8 8 7 7 7 7 7 7 7 7 7 7 7 7 7 7 7 7 7 7
Wind_Speed
2 3 4 7 5 6 4 4 5 6 5 6 8 9 10 11 11 12 12 12 12 10 9 9 8 8 8 7 7 5 5 4 3 2 2 3 3 2 3 4 6 6 6 6
4 5 11 7 6 6 6 5 4 2 2 5 7 6 7 9 11 13 13 13 13 11 10 9 8 8 8 7 7 7 6 5 4 2 1 2 2 2 2 3 6 7 7 7
7 9 7 6 8 6 4 4 4 2 2 5 8 3 3 4 7 9 11 11 12 12 11 9 9 8 7 7 6 6 6 6 5 4 3 4 3 3 3 4 3 5 7 7
7 9 5 4 5 4 3 3 6 5 5 1 4 3 3 5 6 8 10 11 10 11 11 9 9 8 7 6 6 7 7 7 6 6 5 5 4 3 2 2 2 4 7 7
5 3 2 4 6 4 5 3 5 4 5 3 3 4 3 4 6 9 10 11 11 11 11 10 9 9 7 6 6 6 7 7 7 6 5 5 4 3 2 3 4 4 5 6
7 5 3 4 3 3 4 6 7 6 5 2 2 4 4 5 8 9 10 11 12 11 10 10 9 9 7 6 6 6 7 6 6 7 6 6 5 5 4 4 4 3 3 4
6 5 3 0 3 4 5 6 5 6 4 3 2 2 4 4 6 11 13 12 12 11 10 10 10 8 7 6 5 5 6 5 6 6 6 6 5 5 4 3 3 3 3 3
1 5 4 1 2 2 1 8 7 4 4 3 2 1 3 0 5 10 12 13 13 11 10 10 9 8 7 6 5 5 5 5 5 5 5 5 5 4 3 3 3 3 2 2
3 4 5 1 2 4 2 2 7 7 3 1 2 2 2 4 8 10 12 12 11 11 10 10 9 9 8 7 6 5 5 5 5 5 5 5 5 4 4 4 4 3 2 2
5 1 4 4 4 3 4 5 5 5 4 1 2 3 4 7 9 10 11 11 10 10 10 9 9 8 7 6 5 5 5 4 5 5 5 4 4 4 4 4 5 4 4 4
4 3 4 4 2 1 3 2 4 4 5 5 3 5 5 11 11 11 10 11 12 11 10 9 8 8 7 6 6 6 5 4 4 5 4 5 4 4 4 4 4 4 4 4
2 4 0 3 3 2 3 2 4 4 2 4 4 5 3 8 9 11 11 11 12 11 10 9 8 8 7 6 5 5 4 4 3 3 4 4 4 4 5 4 4 4 5 5
3 5 3 6 7 6 2 1 3 5 4 3 3 3 2 7 8 9 11 12 12 12 11 9 8 8 7 6 5 5 4 3 3 3 4 4 4 4 4 4 4 4 4 5
4 4 5 5 5 3 3 3 1 4 3 2 4 5 3 6 9 9 11 12 12 11 11 10 8 7 7 6 5 4 3 3 3 3 3 3 3 3 3 3 4 4 4 5
5 3 1 1 1 2 3 5 4 1 4 5 6 7 8 9 10 11 12 12 12 11 10 10 9 7 7 6 5 4 3 3 3 3 3 3 2 3 4 4 5 4 5 5
4 3 3 3 3 3 5 7 6 4 2 4 6 3 4 7 8 10 11 13 13 12 11 10 9 9 7 7 6 4 4 3 3 3 2 2 3 3 3 3 4 5 5 5
2 3 3 2 4 3 3 3 3 2 2 4 4 5 9 9 9 11 11 12 12 12 11 11 9 8 7 6 6 5 4 3 3 3 2 2 3 3 3 3 4 4 4 5
3 3 2 1 4 2 3 1 3 4 4 4 5 8 10 9 7 6 8 11 11 11 10 9 8 7 6 5 5 5 4 4 3 3 3 3 3 3 3 3 3 3 3 3
5 5 3 2 1 0 3 4 1 3 3 3 9 10 9 10 9 5 5 9 10 10 10 9 8 7 6 6 6 6 4 4 3 3 2 2 3 3 3 3 2 2 2 3
3 5 4 2 2 1 4 5 2 5 2 0 8 11 11 8 5 4 7 10 11 10 9 9 8 7 7 6 6 6 4 4 3 3 3 3 3 3 2 2 2 2 2 2
3 3 3 2 1 1 4 6 2 3 4 3 5 9 9 5 5 8 12 11 10 10 10 9 9 7 6 6 7 6 4 3 2 3 3 3 3 2 2 2 2 2 2 3
2 2 1 2 2 3 5 3 2 3 2 4 5 6 8 8 11 12 13 12 12 10 9 9 9 7 5 6 7 6 4 3 3 4 3 3 2 1 2 3 3 3 2 3
1 3 4 3 4 4 1 2 3 5 5 4 5 8 12 11 11 12 11 11 10 10 9 8 9 7 5 5 7 7 4 4 4 4 3 3 3 3 3 3 3 3 3 2
2 2 3 2 0 1 2 3 3 5 5 6 8 11 12 11 12 12 11 10 9 8 8 8 8 8 5 4 5 5 4 5 5 3 2 2 3 3 3 3 3 3 2 2
2 1 3 2 1 3 3 3 4 6 8 9 9 9 11 13 13 11 10 10 9 8 7 8 8 7 6 5 5 4 4 5 5 3 2 1 2 2 2 3 2 2 0 2
1 3 4 3 5 4 3 3 6 8 8 10 10 9 10 11 12 11 10 9 9 9 8 8 7 7 6 6 5 4 4 5 5 3 2 2 1 1 1 1 2 3 1 1
Wind_Direction
311 58 258 246 216 212 231 238 241 241 209 136 142 145 164 159 143 142 141 138 135 130 119 109 99 91 83 73 67 58 55 40 60 79 82 79 70 65 53 54 60 60 54 53
13 273 246 248 269 260 249 251 258 298 143 129 128 137 153 151 156 156 152 146 142 132 119 110 98 86 80 76 70 59 49 41 42 53 64 84 94 77 68 54 54 57 54 50
216 245 251 233 253 250 254 205 174 154 56 88 108 74 110 125 124 139 145 145 145 142 134 126 111 95 84 72 68 68 50 43 40 46 64 67 57 49 43 39 34 33 49 48
246 255 257 249 244 200 254 215 154 141 115 112 119 158 231 159 138 148 152 150 148 138 133 127 117 103 95 84 70 63 54 45 38 42 69 80 82 75 43 40 44 31 40 38
265 258 257 259 249 201 215 169 114 115 121 87 43 126 244 155 168 178 166 154 144 140 135 129 123 116 104 90 76 64 56 46 39 43 57 75 75 68 54 49 47 35 25 24
265 266 216 229 256 196 152 70 51 57 78 84 238 152 224 199 198 178 163 150 141 138 134 125 118 111 99 87 76 68 63 49 41 46 52 66 74 69 61 49 44 31 16 9
324 317 308 302 13 3 77 81 38 12 21 251 260 138 239 226 183 170 160 148 139 140 137 130 123 115 108 100 86 74 72 55 43 51 51 55 66 71 70 57 49 39 21 9
346 307 300 334 165 189 153 133 153 185 211 270 350 214 280 212 138 142 143 143 142 141 139 133 127 123 121 113 99 84 78 60 47 56 54 49 55 63 61 50 49 43 27 4
178 268 289 272 140 138 130 164 169 141 132 97 292 292 339 106 124 138 142 143 146 144 138 131 126 124 123 115 105 96 83 63 58 67 64 55 49 58 60 52 45 35 16 9
156 232 307 335 46 31 144 158 93 111 138 206 251 235 213 185 174 158 152 152 148 138 130 126 125 124 120 116 107 96 87 75 71 71 65 65 51 51 52 50 41 32 19 21
131 141 326 17 49 302 12 49 100 116 145 154 212 256 222 189 177 166 161 153 145 136 131 129 128 125 120 109 103 97 87 78 77 73 67 62 52 46 45 42 34 32 26 24
82 117 321 277 272 236 139 138 129 135 204 161 166 260 294 163 157 151 148 144 139 134 131 130 128 122 117 110 104 100 93 89 86 82 72 65 59 52 48 40 31 34 34 28
68 97 62 351 346 2 35 68 126 129 125 142 154 250 31 119 130 140 141 141 140 136 132 129 125 124 122 118 113 107 100 94 84 82 78 66 60 57 44 32 29 34 37 33
83 95 149 187 229 274 325 343 65 112 133 171 183 175 161 149 144 144 143 141 140 140 139 136 131 129 128 128 124 119 112 100 90 84 77 64 55 49 39 36 37 37 41 44
70 78 50 250 304 19 355 350 358 80 169 175 187 170 186 178 162 154 149 145 144 146 145 140 137 136 135 132 130 128 117 103 98 90 75 54 51 49 43 42 42 41 42 46
50 70 35 2 16 31 34 19 24 39 60 117 124 140 169 144 134 143 152 154 156 155 151 145 142 141 142 142 140 131 120 115 102 97 88 60 57 56 51 50 48 50 46 43
38 75 58 334 327 35 30 358 38 55 82 142 167 177 142 136 150 157 156 154 155 152 150 151 150 147 147 147 142 138 130 116 100 92 75 70 67 67 50 57 58 50 47 49
132 98 106 33 27 53 256 299 98 95 62 87 109 134 143 144 144 142 147 147 146 146 145 145 142 140 139 136 130 125 118 113 103 88 74 76 85 70 56 62 57 44 45 48
151 137 113 103 79 321 323 331 350 113 45 78 121 127 124 116 96 90 129 138 143 143 142 141 140 137 133 132 131 120 112 108 100 89 88 79 84 79 67 59 49 39 53 44
83 105 112 111 120 203 273 306 301 103 72 239 136 143 143 130 133 174 148 131 128 127 130 131 128 124 127 131 128 120 118 107 103 105 102 89 88 86 75 59 39 36 63 54
39 56 92 125 146 254 290 314 11 112 216 194 154 152 154 160 168 148 135 127 129 129 129 128 126 128 136 136 126 124 122 127 135 116 99 86 82 85 85 53 32 47 58 52
124 105 123 124 117 259 311 15 92 195 164 144 143 142 135 122 120 127 131 133 133 130 130 130 130 133 139 135 129 130 138 146 121 103 91 81 72 61 73 57 35 40 58 56
84 173 163 161 198 233 263 138 168 144 133 137 132 135 129 125 130 132 135 137 138 139 138 136 137 136 137 140 137 139 154 139 117 102 85 73 63 48 51 60 53 46 54 67
343 78 104 87 100 124 80 85 94 119 127 129 130 134 133 132 136 135 138 140 140 138 139 138 138 140 146 148 143 146 143 133 124 121 102 81 68 50 38 45 60 77 73 81
271 66 88 93 154 67 42 85 112 107 111 115 120 129 136 135 139 141 143 145 144 142 142 143 148 152 156 150 148 152 144 134 135 139 133 119 105 96 63 49 50 89 98 184
276 158 149 198 206 160 186 170 131 119 125 132 128 125 135 140 144 143 145 146 144 144 144 146 149 153 156 154 158 167 161 148 142 145 155 167 160 150 139 102 22 14 26 41
Height
1498 1504 1508 1504 1502 1505 1507 1509 1511 1505 1499 1504 1512 1517 1520 1523 1525 1527 1530 1533 1535 1538 1540 1541 1542 1543 1544 1544 1545 1545 1545 1545 1545 1545 1545 1544 1545 1545 1544 1544 1544 1544 1544 1543
1505 1506 1498 1496 1497 1499 1503 1508 1508 1503 1497 1504 1514 1519 1519 1522 1524 1526 1529 1533 1535 1537 1539 1541 1542 1543 1543 1544 1544 1545 1545 1544 1544 1544 1544 1544 1544 1544 1543 1543 1543 1543 1542 1541
1506 1499 1492 1495 1498 1500 1501 1504 1504 1505 1502 1505 1514 1526 1525 1525 1527 1529 1531 1532 1535 1535 1537 1540 1541 1542 1543 1543 1544 1544 1544 1544 1544 1543 1543 1543 1543 1543 1543 1542 1542 1541 1541 1540
1500 1492 1491 1492 1494 1496 1504 1494 1495 1500 1512 1522 1520 1539 1531 1527 1528 1529 1531 1532 1534 1537 1538 1540 1541 1541 1542 1543 1544 1544 1543 1543 1543 1542 1542 1542 1542 1541 1541 1541 1540 1540 1539 1538
1497 1489 1490 1492 1490 1489 1495 1490 1494 1500 1512 1524 1525 1535 1535 1527 1530 1528 1529 1531 1534 1536 1538 1539 1540 1541 1542 1543 1543 1543 1543 1543 1542 1542 1542 1542 1541 1541 1541 1540 1539 1539 1538 1537
1491 1486 1486 1487 1484 1485 1487 1493 1501 1510 1521 1535 1529 1534 1535 1529 1525 1525 1528 1530 1533 1536 1538 1539 1540 1541 1542 1543 1543 1543 1543 1543 1542 1542 1541 1541 1541 1540 1540 1539 1538 1537 1537 1536
1496 1488 1484 1483 1487 1488 1491 1510 1529 1533 1541 1539 1527 1530 1532 1520 1518 1520 1524 1528 1531 1535 1538 1539 1540 1541 1542 1543 1543 1543 1543 1542 1542 1542 1541 1541 1540 1540 1539 1538 1537 1536 1535 1534
1507 1505 1489 1484 1488 1494 1496 1507 1530 1540 1543 1540 1530 1532 1526 1517 1516 1518 1523 1526 1530 1533 1537 1538 1540 1541 1542 1543 1544 1544 1543 1543 1542 1542 1541 1541 1540 1540 1539 1538 1537 1535 1534 1533
1505 1504 1486 1483 1483 1487 1497 1505 1507 1524 1531 1541 1539 1530 1523 1519 1519 1521 1524 1528 1530 1533 1535 1538 1540 1541 1543 1543 1544 1544 1544 1543 1542 1541 1541 1541 1540 1539 1539 1537 1536 1535 1534 1532
1494 1502 1491 1484 1483 1487 1491 1497 1512 1524 1538 1544 1538 1533 1529 1522 1521 1522 1525 1528 1530 1533 1536 1538 1540 1542 1543 1544 1544 1545 1544 1543 1543 1542 1542 1541 1541 1539 1538 1537 1536 1535 1533 1532
1490 1502 1499 1492 1495 1497 1496 1500 1508 1520 1525 1538 1544 1537 1514 1514 1516 1520 1524 1526 1529 1532 1535 1538 1540 1542 1543 1544 1545 1545 1545 1544 1544 1543 1543 1542 1541 1540 1538 1537 1536 1534 1533 1532
1490 1501 1508 1500 1491 1488 1492 1499 1507 1521 1525 1527 1535 1533 1508 1510 1514 1518 1522 1526 1529 1532 1535 1538 1540 1542 1543 1544 1545 1546 1546 1545 1545 1544 1543 1542 1541 1540 1539 1538 1536 1535 1534 1532
1491 1503 1516 1513 1507 1497 1497 1496 1501 1510 1520 1526 1533 1529 1512 1512 1515 1519 1522 1525 1529 1532 1534 1537 1539 1541 1543 1544 1546 1546 1546 1546 1546 1545 1544 1543 1542 1541 1540 1538 1537 1536 1534 1533
1489 1503 1513 1518 1513 1502 1500 1498 1499 1507 1521 1523 1520 1519 1516 1515 1517 1520 1522 1525 1528 1531 1534 1536 1539 1541 1543 1545 1546 1547 1547 1547 1546 1546 1545 1544 1543 1542 1540 1539 1538 1537 1535 1534
1493 1504 1502 1501 1498 1498 1499 1499 1498 1502 1506 1514 1513 1513 1513 1514 1516 1519 1522 1525 1528 1532 1534 1536 1539 1541 1543 1544 1546 1547 1547 1547 1547 1546 1546 1545 1544 1542 1541 1540 1539 1538 1536 1535
1497 1504 1503 1504 1498 1498 1501 1500 1499 1500 1502 1506 1509 1513 1510 1512 1515 1518 1521 1524 1528 1531 1534 1537 1539 1541 1543 1544 1546 1547 1547 1547 1547 1546 1546 1545 1544 1543 1542 1541 1540 1539 1538 1536
1503 1506 1511 1513 1504 1502 1511 1507 1504 1504 1503 1505 1510 1512 1511 1514 1516 1517 1520 1523 1526 1530 1534 1536 1539 1541 1543 1544 1546 1547 1547 1548 1547 1547 1546 1546 1545 1544 1543 1542 1541 1540 1539 1538
1503 1508 1515 1516 1513 1520 1514 1503 1502 1504 1505 1503 1505 1508 1510 1513 1517 1519 1521 1523 1527 1530 1534 1537 1539 1541 1543 1545 1546 1548 1548 1548 1548 1547 1547 1547 1546 1545 1544 1543 1542 1541 1540 1539
1498 1506 1514 1519 1520 1518 1510 1504 1504 1506 1510 1506 1507 1511 1513 1516 1519 1522 1523 1525 1527 1530 1533 1536 1539 1541 1544 1545 1547 1548 1549 1549 1548 1548 1548 1548 1547 1546 1545 1544 1544 1543 1542 1541
1499 1503 1512 1517 1520 1524 1516 1504 1502 1505 1514 1509 1508 1511 1513 1516 1521 1524 1524 1526 1528 1532 1534 1537 1539 1542 1544 1546 1548 1549 1549 1549 1549 1549 1549 1549 1548 1547 1547 1546 1545 1544 1544 1543
1508 1510 1514 1518 1520 1517 1509 1504 1503 1515 1516 1510 1509 1510 1512 1514 1517 1520 1523 1526 1529 1532 1535 1538 1540 1543 1545 1547 1548 1549 1550 1550 1550 1550 1550 1550 1549 1549 1548 1548 1547 1546 1546 1545
1510 1514 1516 1518 1522 1522 1507 1505 1508 1511 1508 1509 1510 1511 1512 1514 1516 1519 1523 1527 1530 1533 1536 1539 1541 1543 1546 1547 1549 1550 1550 1551 1551 1551 1551 1551 1551 1550 1550 1549 1549 1548 1548 1547
1508 1510 1512 1515 1518 1510 1507 1506 1507 1507 1508 1509 1510 1512 1513 1515 1518 1521 1525 1528 1531 1534 1537 1540 1542 1544 1546 1548 1550 1550 1551 1552 1553 1553 1553 1553 1552 1552 1552 1551 1551 1550 1549 1549
1507 1505 1508 1511 1510 1508 1507 1507 1507 1507 1508 1509 1511 1513 1514 1517 1520 1523 1526 1529 1532 1535 1538 1540 1542 1544 1547 1549 1550 1551 1552 1553 1554 1554 1554 1555 1554 1554 1554 1553 1552 1552 1551 1550
1507 1506 1509 1512 1510 1510 1509 1509 1509 1509 1510 1511 1513 1515 1516 1518 1521 1524 1527 1530 1533 1536 1539 1541 1543 1545 1547 1549 1551 1552 1553 1554 1555 1556 1556 1556 1556 1556 1555 1555 1554 1554 1553 1552
1506 1507 1510 1512 1509 1509 1511 1511 1511 1511 1512 1513 1514 1517 1519 1520 1522 1525 1528 1531 1534 1537 1539 1542 1544 1546 1548 1550 1552 1553 1555 1556 1556 1557 1557 1558 1558 1557 1557 1556 1556 1556 1555 1554